Location: Unspecified
(0.0000°N, 0.0000°E)
Time: 01:23:00
(UTC+00:00)

COSMOS 2437 - Visible Passes

Search period start: 16 May 2026 00:00
Search period end: 26 May 2026 00:00
Orbit: 1478 x 1512 km, 82.5° (Epoch: 15 May)

Date Brightness Start Highest point End Pass type
(mag) Time Alt. Az. Time Alt. Az. Time Alt. Az.
16 May 9.7 20:02:17 10° NE 20:02:36 11° NE 20:02:36 11° NE visible
16 May 9.7 21:56:23 10° NNW 21:58:34 19° NNW 21:58:34 19° NNW visible
17 May 9.2 21:06:54 10° N 21:10:15 27° N 21:10:15 27° N visible
18 May 9.2 20:18:43 10° NNE 20:21:57 23° NE 20:21:57 23° NE visible
18 May 9.9 22:16:00 10° NW 22:17:56 16° NW 22:17:56 16° NW visible
19 May 9.5 19:32:47 10° NE 19:33:41 12° ENE 19:33:41 12° ENE visible
19 May 9.1 21:25:25 10° NNW 21:29:40 32° NNW 21:29:40 32° NNW visible
20 May 8.6 20:36:16 10° N 20:41:25 39° NNE 20:41:25 39° NNE visible
20 May 10.2 22:37:24 10° WNW 22:37:25 10° WNW 22:37:25 10° WNW visible
21 May 8.9 19:48:32 10° NNE 19:53:14 26° ENE 19:53:14 26° ENE visible
21 May 9.4 21:44:41 10° NNW 21:49:13 27° WNW 21:49:13 27° WNW visible
22 May 9.5 19:04:07 10° ENE 19:05:05 11° ENE 19:05:05 11° ENE visible
22 May 8.3 20:54:32 10° N 21:01:04 54° NNW 21:01:04 54° NNW visible
23 May 8.1 20:05:45 10° NNE 20:12:57 50° ENE 20:12:57 50° ENE visible
23 May 9.8 22:05:10 10° NW 22:08:56 17° WNW 22:08:56 17° WNW visible
24 May 8.8 19:18:31 10° NE 19:24:52 24° E 19:24:52 24° E visible
24 May 8.7 21:13:31 10° NNW 21:20:53 42° W 21:20:53 42° W visible
25 May 7.7 20:23:46 10° N 20:32:37 89° W 20:32:51 86° SSW visible
